N803RL KLXV-KGWS

Flight info

Callsign N803RL
Flight time N/A
Altitude 13000
Route VFR
Aircraft RV8/L-VGD/C

Departure

Time 2026-04-22 00:58
Airport Lake County Airport (KLXV)

Arrival

Time N/A
Airport Glenwood Springs Municipal Airport (KGWS)
Time Latitude Longitude Altitude Speed Heading
2026-04-22 00:47 39.22468 -106.31638 9937 ft 0 kts 164°
2026-04-22 00:54 39.22467 -106.31637 9937 ft 2 kts 175°
2026-04-22 00:55 39.22462 -106.31639 9935 ft 0 kts 239°
2026-04-22 00:55 39.22496 -106.31655 9936 ft 15 kts 352°
2026-04-22 00:55 39.22809 -106.31732 9930 ft 8 kts 328°
2026-04-22 00:56 39.22821 -106.31755 9934 ft 0 kts 258°
2026-04-22 00:57 39.22819 -106.31764 9934 ft 5 kts 256°
2026-04-22 00:57 39.22788 -106.31832 9934 ft 10 kts 171°
2026-04-22 00:57 39.22782 -106.31831 9934 ft 0 kts 170°
2026-04-22 00:57 39.22599 -106.31795 9935 ft 57 kts 165°
2026-04-22 00:58 39.22071 -106.31648 9985 ft 97 kts 176°
2026-04-22 00:58 39.21333 -106.31518 10260 ft 115 kts 173°
2026-04-22 00:58 39.20460 -106.31366 10400 ft 135 kts 177°
2026-04-22 00:58 39.19492 -106.31306 10623 ft 138 kts 183°
2026-04-22 00:59 39.18550 -106.31324 11051 ft 133 kts 189°
2026-04-22 00:59 39.17671 -106.31531 11536 ft 123 kts 198°
2026-04-22 00:59 39.16803 -106.31777 11642 ft 138 kts 196°
2026-04-22 00:59 39.15875 -106.32075 11808 ft 128 kts 196°
2026-04-22 01:00 39.15032 -106.32267 11907 ft 129 kts 191°
2026-04-22 01:00 39.14075 -106.32458 11938 ft 140 kts 192°
2026-04-22 01:00 39.13147 -106.32741 12056 ft 143 kts 198°
2026-04-22 01:00 39.12220 -106.33226 12161 ft 141 kts 209°
2026-04-22 01:01 39.11414 -106.33884 12326 ft 137 kts 217°
2026-04-22 01:01 39.10680 -106.34611 12554 ft 128 kts 218°
2026-04-22 01:01 39.09977 -106.35398 12603 ft 138 kts 222°
2026-04-22 01:01 39.09284 -106.36218 12789 ft 137 kts 224°
2026-04-22 01:02 39.08593 -106.37114 12810 ft 143 kts 225°
2026-04-22 01:02 39.07923 -106.38010 12996 ft 135 kts 229°
2026-04-22 01:02 39.07384 -106.38961 13160 ft 131 kts 243°
2026-04-22 01:02 39.07180 -106.40092 13352 ft 131 kts 259°
2026-04-22 01:03 39.07105 -106.41280 13340 ft 141 kts 263°
2026-04-22 01:03 39.07093 -106.42611 13295 ft 150 kts 267°
2026-04-22 01:03 39.07112 -106.43884 13618 ft 136 kts 266°
2026-04-22 01:03 39.07146 -106.45160 13604 ft 144 kts 267°
2026-04-22 01:04 39.07197 -106.46494 13360 ft 160 kts 266°
2026-04-22 01:04 39.07189 -106.48014 12904 ft 177 kts 266°
2026-04-22 01:04 39.07150 -106.49590 12830 ft 165 kts 265°
2026-04-22 01:04 39.07212 -106.50866 13347 ft 142 kts 281°
2026-04-22 01:05 39.07680 -106.52137 13016 ft 173 kts 297°
2026-04-22 01:05 39.08367 -106.53418 13037 ft 170 kts 305°
2026-04-22 01:05 39.09236 -106.54479 13020 ft 173 kts 318°